Year,Month,Day,Hour,Minute,Value (Times are PST for temperature in C)
2016,08,11,00,00,15.20
2016,08,11,00,01,15.20
2016,08,11,00,02,15.20
2016,08,11,00,03,15.20
2016,08,11,00,04,15.10
2016,08,11,00,05,15.10
2016,08,11,00,06,15.20
2016,08,11,00,07,15.20
2016,08,11,00,08,15.20
2016,08,11,00,09,15.20
2016,08,11,00,10,15.20
2016,08,11,00,11,15.20
2016,08,11,00,12,15.30
2016,08,11,00,13,15.30
2016,08,11,00,14,15.30
2016,08,11,00,15,15.30
2016,08,11,00,16,15.30
2016,08,11,00,17,15.30
2016,08,11,00,18,15.30
2016,08,11,00,19,15.40
2016,08,11,00,20,15.40
2016,08,11,00,21,15.40
2016,08,11,00,22,15.40
2016,08,11,00,23,15.50
2016,08,11,00,24,15.50
2016,08,11,00,25,15.60
2016,08,11,00,26,15.60
2016,08,11,00,27,15.50
2016,08,11,00,28,15.50
2016,08,11,00,29,15.40
2016,08,11,00,30,15.40
2016,08,11,00,31,15.40
2016,08,11,00,32,15.30
2016,08,11,00,33,15.30
2016,08,11,00,34,15.30
2016,08,11,00,35,15.30
2016,08,11,00,36,15.30
2016,08,11,00,37,15.30
2016,08,11,00,38,15.30
2016,08,11,00,39,15.30
2016,08,11,00,40,15.30
2016,08,11,00,41,15.30
2016,08,11,00,42,15.40
2016,08,11,00,43,15.40
2016,08,11,00,44,15.40
2016,08,11,00,45,15.40
2016,08,11,00,46,15.50
2016,08,11,00,47,15.50
2016,08,11,00,48,15.50
2016,08,11,00,49,15.50
2016,08,11,00,50,15.40
2016,08,11,00,51,15.40
2016,08,11,00,52,15.30
2016,08,11,00,53,15.20
2016,08,11,00,54,15.10
2016,08,11,00,55,15.00
2016,08,11,00,56,15.00
2016,08,11,00,57,14.90
2016,08,11,00,58,14.90
2016,08,11,00,59,14.90
2016,08,11,01,00,14.80
2016,08,11,01,01,14.80
2016,08,11,01,02,14.80
2016,08,11,01,03,14.80
2016,08,11,01,04,14.80
2016,08,11,01,05,14.80
2016,08,11,01,06,14.80
2016,08,11,01,07,14.80
2016,08,11,01,08,14.80
2016,08,11,01,09,14.80
2016,08,11,01,10,14.70
2016,08,11,01,11,14.70
2016,08,11,01,12,14.70
2016,08,11,01,13,14.70
2016,08,11,01,14,14.70
2016,08,11,01,15,14.70
2016,08,11,01,16,14.60
2016,08,11,01,17,14.60
2016,08,11,01,18,14.60
2016,08,11,01,19,14.60
2016,08,11,01,20,14.60
2016,08,11,01,21,14.60
2016,08,11,01,22,14.60
2016,08,11,01,23,14.60
2016,08,11,01,24,14.60
2016,08,11,01,25,14.60
2016,08,11,01,26,14.60
2016,08,11,01,27,14.60
2016,08,11,01,28,14.60
2016,08,11,01,29,14.60
2016,08,11,01,30,14.60
2016,08,11,01,31,14.60
2016,08,11,01,32,14.60
2016,08,11,01,33,14.60
2016,08,11,01,34,14.60
2016,08,11,01,35,14.60
2016,08,11,01,36,14.50
2016,08,11,01,37,14.50
2016,08,11,01,38,14.60
2016,08,11,01,39,14.50
2016,08,11,01,40,14.60
2016,08,11,01,41,14.60
2016,08,11,01,42,14.60
2016,08,11,01,43,14.60
2016,08,11,01,44,14.60
2016,08,11,01,45,14.50
2016,08,11,01,46,14.50
2016,08,11,01,47,14.50
2016,08,11,01,48,14.50
2016,08,11,01,49,14.50
2016,08,11,01,50,14.50
2016,08,11,01,51,14.50
2016,08,11,01,52,14.50
2016,08,11,01,53,14.50
2016,08,11,01,54,14.50
2016,08,11,01,55,14.60
2016,08,11,01,56,14.60
2016,08,11,01,57,14.60
2016,08,11,01,58,14.60
2016,08,11,01,59,14.60
2016,08,11,02,00,14.60
2016,08,11,02,01,14.60
2016,08,11,02,02,14.60
2016,08,11,02,03,14.60
2016,08,11,02,04,14.60
2016,08,11,02,05,14.60
2016,08,11,02,06,14.60
2016,08,11,02,07,14.60
2016,08,11,02,08,14.60
2016,08,11,02,09,14.60
2016,08,11,02,10,14.60
2016,08,11,02,11,14.50
2016,08,11,02,12,14.60
2016,08,11,02,13,14.60
2016,08,11,02,14,14.60
2016,08,11,02,15,14.60
2016,08,11,02,16,14.60
2016,08,11,02,17,14.60
2016,08,11,02,18,14.60
2016,08,11,02,19,14.50
2016,08,11,02,20,14.50
2016,08,11,02,21,14.50
2016,08,11,02,22,14.50
2016,08,11,02,23,14.50
2016,08,11,02,24,14.50
2016,08,11,02,25,14.50
2016,08,11,02,26,14.50
2016,08,11,02,27,14.40
2016,08,11,02,28,14.40
2016,08,11,02,29,14.40
2016,08,11,02,30,14.40
2016,08,11,02,31,14.30
2016,08,11,02,32,14.30
2016,08,11,02,33,14.30
2016,08,11,02,34,14.30
2016,08,11,02,35,14.30
2016,08,11,02,36,14.30
2016,08,11,02,37,14.20
2016,08,11,02,38,14.20
2016,08,11,02,39,14.10
2016,08,11,02,40,14.10
2016,08,11,02,41,14.00
2016,08,11,02,42,14.00
2016,08,11,02,43,14.00
2016,08,11,02,44,13.90
2016,08,11,02,45,13.90
2016,08,11,02,46,13.90
2016,08,11,02,47,13.90
2016,08,11,02,48,13.90
2016,08,11,02,49,13.90
2016,08,11,02,50,13.90
2016,08,11,02,51,13.90
2016,08,11,02,52,13.80
2016,08,11,02,53,13.80
2016,08,11,02,54,13.80
2016,08,11,02,55,13.80
2016,08,11,02,56,13.80
2016,08,11,02,57,13.80
2016,08,11,02,58,13.80
2016,08,11,02,59,13.70
2016,08,11,03,00,13.70
2016,08,11,03,01,13.70
2016,08,11,03,02,13.70
2016,08,11,03,03,13.70
2016,08,11,03,04,13.70
2016,08,11,03,05,13.60
2016,08,11,03,06,13.60
2016,08,11,03,07,13.60
2016,08,11,03,08,13.60
2016,08,11,03,09,13.60
2016,08,11,03,10,13.50
2016,08,11,03,11,13.50
2016,08,11,03,12,13.50
2016,08,11,03,13,13.50
2016,08,11,03,14,13.40
2016,08,11,03,15,13.40
2016,08,11,03,16,13.40
2016,08,11,03,17,13.40
2016,08,11,03,18,13.40
2016,08,11,03,19,13.40
2016,08,11,03,20,13.40
2016,08,11,03,21,13.40
2016,08,11,03,22,13.40
2016,08,11,03,23,13.40
2016,08,11,03,24,13.40
2016,08,11,03,25,13.40
2016,08,11,03,26,13.40
2016,08,11,03,27,13.40
2016,08,11,03,28,13.40
2016,08,11,03,29,13.40
2016,08,11,03,30,13.30
2016,08,11,03,31,13.30
2016,08,11,03,32,13.30
2016,08,11,03,33,13.30
2016,08,11,03,34,13.30
2016,08,11,03,35,13.30
2016,08,11,03,36,13.30
2016,08,11,03,37,13.20
2016,08,11,03,38,13.20
2016,08,11,03,39,13.20
2016,08,11,03,40,13.20
2016,08,11,03,41,13.20
2016,08,11,03,42,13.20
2016,08,11,03,43,13.10
2016,08,11,03,44,13.10
2016,08,11,03,45,13.10
2016,08,11,03,46,13.10
2016,08,11,03,47,13.10
2016,08,11,03,48,13.10
2016,08,11,03,49,13.10
2016,08,11,03,50,13.10
2016,08,11,03,51,13.10
2016,08,11,03,52,13.10
2016,08,11,03,53,13.10
2016,08,11,03,54,13.10
2016,08,11,03,55,13.10
2016,08,11,03,56,13.10
2016,08,11,03,57,13.10
2016,08,11,03,58,13.10
2016,08,11,03,59,13.10
2016,08,11,04,00,13.10
2016,08,11,04,01,13.10
2016,08,11,04,02,13.10
2016,08,11,04,03,13.10
2016,08,11,04,04,13.10
2016,08,11,04,05,13.10
2016,08,11,04,06,13.10
2016,08,11,04,07,13.10
2016,08,11,04,08,13.10
2016,08,11,04,09,13.10
2016,08,11,04,10,13.10
2016,08,11,04,11,13.00
2016,08,11,04,12,13.00
2016,08,11,04,13,13.00
2016,08,11,04,14,12.90
2016,08,11,04,15,12.90
2016,08,11,04,16,12.90
2016,08,11,04,17,12.90
2016,08,11,04,18,12.90
2016,08,11,04,19,12.80
2016,08,11,04,20,12.80
2016,08,11,04,21,12.80
2016,08,11,04,22,12.80
2016,08,11,04,23,12.80
2016,08,11,04,24,12.80
2016,08,11,04,25,12.80
2016,08,11,04,26,12.80
2016,08,11,04,27,12.80
2016,08,11,04,28,12.80
2016,08,11,04,29,12.80
2016,08,11,04,30,12.80
2016,08,11,04,31,12.80
2016,08,11,04,32,12.70
2016,08,11,04,33,12.70
2016,08,11,04,34,12.70
2016,08,11,04,35,12.70
2016,08,11,04,36,12.70
2016,08,11,04,37,12.70
2016,08,11,04,38,12.70
2016,08,11,04,39,12.60
2016,08,11,04,40,12.60
2016,08,11,04,41,12.60
2016,08,11,04,42,12.60
2016,08,11,04,43,12.60
2016,08,11,04,44,12.60
2016,08,11,04,45,12.60
2016,08,11,04,46,12.50
2016,08,11,04,47,12.50
2016,08,11,04,48,12.50
2016,08,11,04,49,12.50
2016,08,11,04,50,12.40
2016,08,11,04,51,12.40
2016,08,11,04,52,12.40
2016,08,11,04,53,12.40
2016,08,11,04,54,12.40
2016,08,11,04,55,12.40
2016,08,11,04,56,12.30
2016,08,11,04,57,12.30
2016,08,11,04,58,12.30
2016,08,11,04,59,12.30
2016,08,11,05,00,12.30
2016,08,11,05,01,12.30
2016,08,11,05,02,12.30
2016,08,11,05,03,12.20
2016,08,11,05,04,12.20
2016,08,11,05,05,12.20
2016,08,11,05,06,12.20
2016,08,11,05,07,12.20
2016,08,11,05,08,12.10
2016,08,11,05,09,12.10
2016,08,11,05,10,12.10
2016,08,11,05,11,12.10
2016,08,11,05,12,12.00
2016,08,11,05,13,12.00
2016,08,11,05,14,12.00
2016,08,11,05,15,12.00
2016,08,11,05,16,12.00
2016,08,11,05,17,12.00
2016,08,11,05,18,12.00
2016,08,11,05,19,12.00
2016,08,11,05,20,12.00
2016,08,11,05,21,12.00
2016,08,11,05,22,12.00
2016,08,11,05,23,12.00
2016,08,11,05,24,12.00
2016,08,11,05,25,12.00
2016,08,11,05,26,12.00
2016,08,11,05,27,12.00
2016,08,11,05,28,12.00
2016,08,11,05,29,12.00
2016,08,11,05,30,12.00
2016,08,11,05,31,12.00
2016,08,11,05,32,12.00
2016,08,11,05,33,12.00
2016,08,11,05,34,12.00
2016,08,11,05,35,12.00
2016,08,11,05,36,12.00
2016,08,11,05,37,12.10
2016,08,11,05,38,12.00
2016,08,11,05,39,12.00
2016,08,11,05,40,12.00
2016,08,11,05,41,12.00
2016,08,11,05,42,12.00
2016,08,11,05,43,12.00
2016,08,11,05,44,12.00
2016,08,11,05,45,12.00
2016,08,11,05,46,12.00
2016,08,11,05,47,12.00
2016,08,11,05,48,12.00
2016,08,11,05,49,12.00
2016,08,11,05,50,11.90
2016,08,11,05,51,11.90
2016,08,11,05,52,11.90
2016,08,11,05,53,11.90
2016,08,11,05,54,11.90
2016,08,11,05,55,11.90
2016,08,11,05,56,11.80
2016,08,11,05,57,11.80
2016,08,11,05,58,11.80
2016,08,11,05,59,11.80
2016,08,11,06,00,11.80
2016,08,11,06,01,11.80
2016,08,11,06,02,11.80
2016,08,11,06,03,11.80
2016,08,11,06,04,11.80
2016,08,11,06,05,11.80
2016,08,11,06,06,11.80
2016,08,11,06,07,11.80
2016,08,11,06,08,11.80
2016,08,11,06,09,11.80
2016,08,11,06,10,11.80
2016,08,11,06,11,11.80
2016,08,11,06,12,11.80
2016,08,11,06,13,11.80
2016,08,11,06,14,11.80
2016,08,11,06,15,11.80
2016,08,11,06,16,11.80
2016,08,11,06,17,11.80
2016,08,11,06,18,11.80
2016,08,11,06,19,11.80
2016,08,11,06,20,11.80
2016,08,11,06,21,11.80
2016,08,11,06,22,11.80
2016,08,11,06,23,11.80
2016,08,11,06,24,11.80
2016,08,11,06,25,11.80
2016,08,11,06,26,11.80
2016,08,11,06,27,11.80
2016,08,11,06,28,11.80
2016,08,11,06,29,11.80
2016,08,11,06,30,11.80
2016,08,11,06,31,11.70
2016,08,11,06,32,11.70
2016,08,11,06,33,11.70
2016,08,11,06,34,11.70
2016,08,11,06,35,11.70
2016,08,11,06,36,11.70
2016,08,11,06,37,11.70
2016,08,11,06,38,11.80
2016,08,11,06,39,11.80
2016,08,11,06,40,11.80
2016,08,11,06,41,11.80
2016,08,11,06,42,11.80
2016,08,11,06,43,11.80
2016,08,11,06,44,11.80
2016,08,11,06,45,11.80
2016,08,11,06,46,11.80
2016,08,11,06,47,11.80
2016,08,11,06,48,11.80
2016,08,11,06,49,11.80
2016,08,11,06,50,11.80
2016,08,11,06,51,11.80
2016,08,11,06,52,11.80
2016,08,11,06,53,11.80
2016,08,11,06,54,11.80
2016,08,11,06,55,11.90
2016,08,11,06,56,11.90
2016,08,11,06,57,11.90
2016,08,11,06,58,11.90
2016,08,11,06,59,11.90
2016,08,11,07,00,11.90
2016,08,11,07,01,11.90
2016,08,11,07,02,12.00
2016,08,11,07,03,12.00
2016,08,11,07,04,12.00
2016,08,11,07,05,12.10
2016,08,11,07,06,12.10
2016,08,11,07,07,12.10
2016,08,11,07,08,12.20
2016,08,11,07,09,12.20
2016,08,11,07,10,12.30
2016,08,11,07,11,12.30
2016,08,11,07,12,12.40
2016,08,11,07,13,12.50
2016,08,11,07,14,12.60
2016,08,11,07,15,12.70
2016,08,11,07,16,12.80
2016,08,11,07,17,12.90
2016,08,11,07,18,12.90
2016,08,11,07,19,13.00
2016,08,11,07,20,13.00
2016,08,11,07,21,13.10
2016,08,11,07,22,13.10
2016,08,11,07,23,13.20
2016,08,11,07,24,13.20
2016,08,11,07,25,13.30
2016,08,11,07,26,13.30
2016,08,11,07,27,13.40
2016,08,11,07,28,13.40
2016,08,11,07,29,13.50
2016,08,11,07,30,13.50
2016,08,11,07,31,13.60
2016,08,11,07,32,13.70
2016,08,11,07,33,13.80
2016,08,11,07,34,13.90
2016,08,11,07,35,14.00
2016,08,11,07,36,14.10
2016,08,11,07,37,14.20
2016,08,11,07,38,14.30
2016,08,11,07,39,14.40
2016,08,11,07,40,14.40
2016,08,11,07,41,14.50
2016,08,11,07,42,14.60
2016,08,11,07,43,14.70
2016,08,11,07,44,14.70
2016,08,11,07,45,14.80
2016,08,11,07,46,14.80
2016,08,11,07,47,14.80
2016,08,11,07,48,14.90
2016,08,11,07,49,14.90
2016,08,11,07,50,15.00
2016,08,11,07,51,15.00
2016,08,11,07,52,15.10
2016,08,11,07,53,15.20
2016,08,11,07,54,15.30
2016,08,11,07,55,15.30
2016,08,11,07,56,15.40
2016,08,11,07,57,15.40
2016,08,11,07,58,15.50
2016,08,11,07,59,15.50
2016,08,11,08,00,15.60
2016,08,11,08,01,15.60
2016,08,11,08,02,15.70
2016,08,11,08,03,15.70
2016,08,11,08,04,15.70
2016,08,11,08,05,15.80
2016,08,11,08,06,15.80
2016,08,11,08,07,15.90
2016,08,11,08,08,15.90
2016,08,11,08,09,16.00
2016,08,11,08,10,16.00
2016,08,11,08,11,16.10
2016,08,11,08,12,16.10
2016,08,11,08,13,16.20
2016,08,11,08,14,16.20
2016,08,11,08,15,16.20
2016,08,11,08,16,16.30
2016,08,11,08,17,16.30
2016,08,11,08,18,16.30
2016,08,11,08,19,16.40
2016,08,11,08,20,16.40
2016,08,11,08,21,16.50
2016,08,11,08,22,16.50
2016,08,11,08,23,16.60
2016,08,11,08,24,16.60
2016,08,11,08,25,16.70
2016,08,11,08,26,16.80
2016,08,11,08,27,16.90
2016,08,11,08,28,17.00
2016,08,11,08,29,17.00
2016,08,11,08,30,17.10
2016,08,11,08,31,17.20
2016,08,11,08,32,17.30
2016,08,11,08,33,17.30
2016,08,11,08,34,17.40
2016,08,11,08,35,17.50
2016,08,11,08,36,17.50
2016,08,11,08,37,17.60
2016,08,11,08,38,17.60
2016,08,11,08,39,17.60
2016,08,11,08,40,17.60
2016,08,11,08,41,17.70
2016,08,11,08,42,17.70
2016,08,11,08,43,17.80
2016,08,11,08,44,17.80
2016,08,11,08,45,17.80
2016,08,11,08,46,17.90
2016,08,11,08,47,18.00
2016,08,11,08,48,18.00
2016,08,11,08,49,18.10
2016,08,11,08,50,18.10
2016,08,11,08,51,18.20
2016,08,11,08,52,18.20
2016,08,11,08,53,18.30
2016,08,11,08,54,18.30
2016,08,11,08,55,18.30
2016,08,11,08,56,18.40
2016,08,11,08,57,18.50
2016,08,11,08,58,18.50
2016,08,11,08,59,18.60
2016,08,11,09,00,18.60
2016,08,11,09,01,18.70
2016,08,11,09,02,18.70
2016,08,11,09,03,18.70
2016,08,11,09,04,18.80
2016,08,11,09,05,18.80
2016,08,11,09,06,18.90
2016,08,11,09,07,19.00
2016,08,11,09,08,19.00
2016,08,11,09,09,19.10
2016,08,11,09,10,19.20
2016,08,11,09,11,19.30
2016,08,11,09,12,19.30
2016,08,11,09,13,19.40
2016,08,11,09,14,19.50
2016,08,11,09,15,19.50
2016,08,11,09,16,19.60
2016,08,11,09,17,19.80
2016,08,11,09,18,19.80
2016,08,11,09,19,19.90
2016,08,11,09,20,19.90
2016,08,11,09,21,20.00
2016,08,11,09,22,20.10
2016,08,11,09,23,20.10
2016,08,11,09,24,20.20
2016,08,11,09,25,20.30
2016,08,11,09,26,20.30
2016,08,11,09,27,20.40
2016,08,11,09,28,20.50
2016,08,11,09,29,20.50
2016,08,11,09,30,20.60
2016,08,11,09,31,20.60
2016,08,11,09,32,20.70
2016,08,11,09,33,20.80
2016,08,11,09,34,20.90
2016,08,11,09,35,20.90
2016,08,11,09,36,21.00
2016,08,11,09,37,21.10
2016,08,11,09,38,21.10
2016,08,11,09,39,21.20
2016,08,11,09,40,21.20
2016,08,11,09,41,21.20
2016,08,11,09,42,21.10
2016,08,11,09,43,21.00
2016,08,11,09,44,20.90
2016,08,11,09,45,20.80
2016,08,11,09,46,20.80
2016,08,11,09,47,20.70
2016,08,11,09,48,20.70
2016,08,11,09,49,20.70
2016,08,11,09,50,20.70
2016,08,11,09,51,20.70
2016,08,11,09,52,20.70
2016,08,11,09,53,20.70
2016,08,11,09,54,20.80
2016,08,11,09,55,20.80
2016,08,11,09,56,20.80
2016,08,11,09,57,20.80
2016,08,11,09,58,20.80
2016,08,11,09,59,20.80
2016,08,11,10,00,20.80
2016,08,11,10,01,20.80
2016,08,11,10,02,20.80
2016,08,11,10,03,20.80
2016,08,11,10,04,20.80
2016,08,11,10,05,20.80
2016,08,11,10,06,20.90
2016,08,11,10,07,20.90
2016,08,11,10,08,21.00
2016,08,11,10,09,21.10
2016,08,11,10,10,21.20
2016,08,11,10,11,21.20
2016,08,11,10,12,21.20
2016,08,11,10,13,21.20
2016,08,11,10,14,21.30
2016,08,11,10,15,21.30
2016,08,11,10,16,21.40
2016,08,11,10,17,21.40
2016,08,11,10,18,21.40
2016,08,11,10,19,21.40
2016,08,11,10,20,21.40
2016,08,11,10,21,21.40
2016,08,11,10,22,21.30
2016,08,11,10,23,21.30
2016,08,11,10,24,21.30
2016,08,11,10,25,21.30
2016,08,11,10,26,21.20
2016,08,11,10,27,21.10
2016,08,11,10,28,21.10
2016,08,11,10,29,21.10
2016,08,11,10,30,21.10
2016,08,11,10,31,21.20
2016,08,11,10,32,21.30
2016,08,11,10,33,21.40
2016,08,11,10,34,21.40
2016,08,11,10,35,21.30
2016,08,11,10,36,21.30
2016,08,11,10,37,21.20
2016,08,11,10,38,21.10
2016,08,11,10,39,21.00
2016,08,11,10,40,20.90
2016,08,11,10,41,20.90
2016,08,11,10,42,20.90
2016,08,11,10,43,20.90
2016,08,11,10,44,20.90
2016,08,11,10,45,21.00
2016,08,11,10,46,21.00
2016,08,11,10,47,21.10
2016,08,11,10,48,21.20
2016,08,11,10,49,21.20
2016,08,11,10,50,21.30
2016,08,11,10,51,21.40
2016,08,11,10,52,21.40
2016,08,11,10,53,21.50
2016,08,11,10,54,21.50
2016,08,11,10,55,21.60
2016,08,11,10,56,21.60
2016,08,11,10,57,21.60
2016,08,11,10,58,21.60
2016,08,11,10,59,21.60
2016,08,11,11,00,21.60
2016,08,11,11,01,21.60
2016,08,11,11,02,21.70
2016,08,11,11,03,21.70
2016,08,11,11,04,21.70
2016,08,11,11,05,21.70
2016,08,11,11,06,21.70
2016,08,11,11,07,21.70
2016,08,11,11,08,21.70
2016,08,11,11,09,21.70
2016,08,11,11,10,21.70
2016,08,11,11,11,21.90
2016,08,11,11,12,22.00
2016,08,11,11,13,22.20
2016,08,11,11,14,22.30
2016,08,11,11,15,22.40
2016,08,11,11,16,22.40
2016,08,11,11,17,22.40
2016,08,11,11,18,22.40
2016,08,11,11,19,22.40
2016,08,11,11,20,22.40
2016,08,11,11,21,22.30
2016,08,11,11,22,22.30
2016,08,11,11,23,22.30
2016,08,11,11,24,22.20
2016,08,11,11,25,22.10
2016,08,11,11,26,22.00
2016,08,11,11,27,21.90
2016,08,11,11,28,21.90
2016,08,11,11,29,21.80
2016,08,11,11,30,21.80
2016,08,11,11,31,21.80
2016,08,11,11,32,21.80
2016,08,11,11,33,21.90
2016,08,11,11,34,21.90
2016,08,11,11,35,22.00
2016,08,11,11,36,22.00
2016,08,11,11,37,22.00
2016,08,11,11,38,22.00
2016,08,11,11,39,22.10
2016,08,11,11,40,22.20
2016,08,11,11,41,22.20
2016,08,11,11,42,22.30
2016,08,11,11,43,22.30
2016,08,11,11,44,22.40
2016,08,11,11,45,22.40
2016,08,11,11,46,22.40
2016,08,11,11,47,22.50
2016,08,11,11,48,22.50
2016,08,11,11,49,22.50
2016,08,11,11,50,22.50
2016,08,11,11,51,22.60
2016,08,11,11,52,22.50
2016,08,11,11,53,22.50
2016,08,11,11,54,22.40
2016,08,11,11,55,22.30
2016,08,11,11,56,22.30
2016,08,11,11,57,22.20
2016,08,11,11,58,22.20
2016,08,11,11,59,22.20
2016,08,11,12,00,22.30
2016,08,11,12,01,22.30
2016,08,11,12,02,22.20
2016,08,11,12,03,22.20
2016,08,11,12,04,22.20
2016,08,11,12,05,22.20
2016,08,11,12,06,22.20
2016,08,11,12,07,22.30
2016,08,11,12,08,22.30
2016,08,11,12,09,22.30
2016,08,11,12,10,22.40
2016,08,11,12,11,22.40
2016,08,11,12,12,22.50
2016,08,11,12,13,22.50
2016,08,11,12,14,22.60
2016,08,11,12,15,22.60
2016,08,11,12,16,22.80
2016,08,11,12,17,22.90
2016,08,11,12,18,22.90
2016,08,11,12,19,22.90
2016,08,11,12,20,22.90
2016,08,11,12,21,22.90
2016,08,11,12,22,22.80
2016,08,11,12,23,22.80
2016,08,11,12,24,22.80
2016,08,11,12,25,22.80
2016,08,11,12,26,22.90
2016,08,11,12,27,22.90
2016,08,11,12,28,22.90
2016,08,11,12,29,22.90
2016,08,11,12,30,22.90
2016,08,11,12,31,22.80
2016,08,11,12,32,22.80
2016,08,11,12,33,22.80
2016,08,11,12,34,22.80
2016,08,11,12,35,22.80
2016,08,11,12,36,22.90
2016,08,11,12,37,22.90
2016,08,11,12,38,23.00
2016,08,11,12,39,23.10
2016,08,11,12,40,23.20
2016,08,11,12,41,23.30
2016,08,11,12,42,23.30
2016,08,11,12,43,23.30
2016,08,11,12,44,23.30
2016,08,11,12,45,23.30
2016,08,11,12,46,23.30
2016,08,11,12,47,23.20
2016,08,11,12,48,23.20
2016,08,11,12,49,23.10
2016,08,11,12,50,23.10
2016,08,11,12,51,23.10
2016,08,11,12,52,23.10
2016,08,11,12,53,23.10
2016,08,11,12,54,23.10
2016,08,11,12,55,23.10
2016,08,11,12,56,23.20
2016,08,11,12,57,23.20
2016,08,11,12,58,23.30
2016,08,11,12,59,23.30
2016,08,11,13,00,23.30
2016,08,11,13,01,23.40
2016,08,11,13,02,23.50
2016,08,11,13,03,23.60
2016,08,11,13,04,23.50
2016,08,11,13,05,23.50
2016,08,11,13,06,23.40
2016,08,11,13,07,23.40
2016,08,11,13,08,23.40
2016,08,11,13,09,23.40
2016,08,11,13,10,23.40
2016,08,11,13,11,23.40
2016,08,11,13,12,23.30
2016,08,11,13,13,23.30
2016,08,11,13,14,23.30
2016,08,11,13,15,23.30
2016,08,11,13,16,23.30
2016,08,11,13,17,23.40
2016,08,11,13,18,23.40
2016,08,11,13,19,23.40
2016,08,11,13,20,23.40
2016,08,11,13,21,23.40
2016,08,11,13,22,23.30
2016,08,11,13,23,23.30
2016,08,11,13,24,23.30
2016,08,11,13,25,23.30
2016,08,11,13,26,23.40
2016,08,11,13,27,23.50
2016,08,11,13,28,23.60
2016,08,11,13,29,23.70
2016,08,11,13,30,23.80
2016,08,11,13,31,23.80
2016,08,11,13,32,23.70
2016,08,11,13,33,23.70
2016,08,11,13,34,23.60
2016,08,11,13,35,23.60
2016,08,11,13,36,23.60
2016,08,11,13,37,23.60
2016,08,11,13,38,23.60
2016,08,11,13,39,23.60
2016,08,11,13,40,23.60
2016,08,11,13,41,23.60
2016,08,11,13,42,23.60
2016,08,11,13,43,23.60
2016,08,11,13,44,23.60
2016,08,11,13,45,23.70
2016,08,11,13,46,23.70
2016,08,11,13,47,23.70
2016,08,11,13,48,23.70
2016,08,11,13,49,23.80
2016,08,11,13,50,23.80
2016,08,11,13,51,23.80
2016,08,11,13,52,23.90
2016,08,11,13,53,23.90
2016,08,11,13,54,24.00
2016,08,11,13,55,24.00
2016,08,11,13,56,24.10
2016,08,11,13,57,24.20
2016,08,11,13,58,24.20
2016,08,11,13,59,24.30
2016,08,11,14,00,24.40
2016,08,11,14,01,24.50
2016,08,11,14,02,24.60
2016,08,11,14,03,24.60
2016,08,11,14,04,24.60
2016,08,11,14,05,24.60
2016,08,11,14,06,24.60
2016,08,11,14,07,24.60
2016,08,11,14,08,24.60
2016,08,11,14,09,24.60
2016,08,11,14,10,24.50
2016,08,11,14,11,24.40
2016,08,11,14,12,24.20
2016,08,11,14,13,24.20
2016,08,11,14,14,24.20
2016,08,11,14,15,24.20
2016,08,11,14,16,24.30
2016,08,11,14,17,24.30
2016,08,11,14,18,24.30
2016,08,11,14,19,24.30
2016,08,11,14,20,24.30
2016,08,11,14,21,24.20
2016,08,11,14,22,24.30
2016,08,11,14,23,24.30
2016,08,11,14,24,24.30
2016,08,11,14,25,24.30
2016,08,11,14,26,24.30
2016,08,11,14,27,24.30
2016,08,11,14,28,24.40
2016,08,11,14,29,24.40
2016,08,11,14,30,24.40
2016,08,11,14,31,24.30
2016,08,11,14,32,24.30
2016,08,11,14,33,24.30
2016,08,11,14,34,24.40
2016,08,11,14,35,24.40
2016,08,11,14,36,24.50
2016,08,11,14,37,24.50
2016,08,11,14,38,24.50
2016,08,11,14,39,24.60
2016,08,11,14,40,24.60
2016,08,11,14,41,24.70
2016,08,11,14,42,24.70
2016,08,11,14,43,24.70
2016,08,11,14,44,24.60
2016,08,11,14,45,24.60
2016,08,11,14,46,24.60
2016,08,11,14,47,24.60
2016,08,11,14,48,24.60
2016,08,11,14,49,24.50
2016,08,11,14,50,24.60
2016,08,11,14,51,24.60
2016,08,11,14,52,24.70
2016,08,11,14,53,24.70
2016,08,11,14,54,24.80
2016,08,11,14,55,24.90
2016,08,11,14,56,24.90
2016,08,11,14,57,25.00
2016,08,11,14,58,25.10
2016,08,11,14,59,25.10
2016,08,11,15,00,25.10
2016,08,11,15,01,25.10
2016,08,11,15,02,25.10
2016,08,11,15,03,25.20
2016,08,11,15,04,25.20
2016,08,11,15,05,25.20
2016,08,11,15,06,25.20
2016,08,11,15,07,25.10
2016,08,11,15,08,25.00
2016,08,11,15,09,25.00
2016,08,11,15,10,25.00
2016,08,11,15,11,25.00
2016,08,11,15,12,25.00
2016,08,11,15,13,25.20
2016,08,11,15,14,25.20
2016,08,11,15,15,25.20
2016,08,11,15,16,25.30
2016,08,11,15,17,25.30
2016,08,11,15,18,25.20
2016,08,11,15,19,25.20
2016,08,11,15,20,25.10
2016,08,11,15,21,25.20
2016,08,11,15,22,25.20
2016,08,11,15,23,25.30
2016,08,11,15,24,25.30
2016,08,11,15,25,25.40
2016,08,11,15,26,25.40
2016,08,11,15,27,25.40
2016,08,11,15,28,25.40
2016,08,11,15,29,25.40
2016,08,11,15,30,25.40
2016,08,11,15,31,25.30
2016,08,11,15,32,25.20
2016,08,11,15,33,25.20
2016,08,11,15,34,25.20
2016,08,11,15,35,25.20
2016,08,11,15,36,25.10
2016,08,11,15,37,25.00
2016,08,11,15,38,24.90
2016,08,11,15,39,24.90
2016,08,11,15,40,24.90
2016,08,11,15,41,24.90
2016,08,11,15,42,25.00
2016,08,11,15,43,25.10
2016,08,11,15,44,25.10
2016,08,11,15,45,25.10
2016,08,11,15,46,25.10
2016,08,11,15,47,25.10
2016,08,11,15,48,25.10
2016,08,11,15,49,25.20
2016,08,11,15,50,25.20
2016,08,11,15,51,25.30
2016,08,11,15,52,25.30
2016,08,11,15,53,25.30
2016,08,11,15,54,25.30
2016,08,11,15,55,25.20
2016,08,11,15,56,25.20
2016,08,11,15,57,25.10
2016,08,11,15,58,25.10
2016,08,11,15,59,25.10
2016,08,11,16,00,25.10
2016,08,11,16,01,25.10
2016,08,11,16,02,25.10
2016,08,11,16,03,25.10
2016,08,11,16,04,25.10
2016,08,11,16,05,25.10
2016,08,11,16,06,25.10
2016,08,11,16,07,25.10
2016,08,11,16,08,25.10
2016,08,11,16,09,25.00
2016,08,11,16,10,25.00
2016,08,11,16,11,25.00
2016,08,11,16,12,25.10
2016,08,11,16,13,25.00
2016,08,11,16,14,25.00
2016,08,11,16,15,24.90
2016,08,11,16,16,25.00
2016,08,11,16,17,25.00
2016,08,11,16,18,25.00
2016,08,11,16,19,25.10
2016,08,11,16,20,25.10
2016,08,11,16,21,25.10
2016,08,11,16,22,25.00
2016,08,11,16,23,24.90
2016,08,11,16,24,24.80
2016,08,11,16,25,24.80
2016,08,11,16,26,24.80
2016,08,11,16,27,24.80
2016,08,11,16,28,24.70
2016,08,11,16,29,24.70
2016,08,11,16,30,24.70
2016,08,11,16,31,24.70
2016,08,11,16,32,24.60
2016,08,11,16,33,24.50
2016,08,11,16,34,24.60
2016,08,11,16,35,24.60
2016,08,11,16,36,24.60
2016,08,11,16,37,24.70
2016,08,11,16,38,24.80
2016,08,11,16,39,24.80
2016,08,11,16,40,24.90
2016,08,11,16,41,24.90
2016,08,11,16,42,25.00
2016,08,11,16,43,25.00
2016,08,11,16,44,25.10
2016,08,11,16,45,25.10
2016,08,11,16,46,25.10
2016,08,11,16,47,25.00
2016,08,11,16,48,24.90
2016,08,11,16,49,24.90
2016,08,11,16,50,24.80
2016,08,11,16,51,24.80
2016,08,11,16,52,24.80
2016,08,11,16,53,24.90
2016,08,11,16,54,24.80
2016,08,11,16,55,24.80
2016,08,11,16,56,24.80
2016,08,11,16,57,24.80
2016,08,11,16,58,24.80
2016,08,11,16,59,24.80
2016,08,11,17,00,24.80
2016,08,11,17,01,24.80
2016,08,11,17,02,24.80
2016,08,11,17,03,24.80
2016,08,11,17,04,24.80
2016,08,11,17,05,24.80
2016,08,11,17,06,24.70
2016,08,11,17,07,24.70
2016,08,11,17,08,24.60
2016,08,11,17,09,24.60
2016,08,11,17,10,24.60
2016,08,11,17,11,24.50
2016,08,11,17,12,24.50
2016,08,11,17,13,24.40
2016,08,11,17,14,24.40
2016,08,11,17,15,24.30
2016,08,11,17,16,24.30
2016,08,11,17,17,24.30
2016,08,11,17,18,24.30
2016,08,11,17,19,24.30